Wind_Speed
17 17 17 16 18 16 14 14 14 13 13 12 12 12 11 11 11 10 10 10 9 8 8 8 8 7 7 8 9 10 9 10 10 10 10 10 10 10 11 11 11 11 11 10 10 10 10 10 9
17 17 17 17 18 14 14 14 14 13 13 13 13 12 12 12 11 11 10 10 9 9 9 8 7 7 7 7 8 9 9 10 10 10 11 11 11 10 11 10 10 10 10 11 11 11 11 11 10
18 17 17 18 16 14 14 14 14 13 13 13 13 13 12 12 11 11 11 10 9 9 8 8 8 8 7 8 9 9 9 9 9 10 10 10 10 10 10 10 10 10 10 11 11 12 11 11 10
18 17 17 17 14 14 15 14 14 14 14 13 13 13 13 12 11 10 11 11 10 10 9 9 8 8 8 8 9 9 10 10 10 10 9 9 9 10 9 10 10 9 10 12 12 11 11 11 10
17 18 18 15 14 15 15 15 15 15 15 14 13 13 13 12 12 11 11 12 11 10 10 9 8 9 8 9 9 9 10 10 10 9 9 8 8 9 9 10 10 10 11 12 12 11 10 10 10
18 18 16 14 14 14 15 15 15 15 15 14 13 13 13 12 12 11 11 11 11 10 10 9 8 9 9 9 9 8 9 9 9 8 8 8 9 8 9 10 10 11 12 12 11 10 10 9 8
17 17 15 14 14 15 15 15 15 15 15 14 13 13 13 13 12 11 11 11 11 11 10 9 8 9 9 8 8 8 8 8 8 8 7 8 8 8 9 10 10 10 11 11 11 10 9 8 7
15 16 15 14 14 15 15 15 15 14 14 14 13 14 14 13 12 12 11 11 11 10 9 8 9 9 8 8 7 7 7 7 7 8 7 7 7 8 8 9 9 10 10 10 10 9 8 7 7
14 14 13 13 13 14 14 15 14 14 13 13 13 14 14 13 13 12 11 11 11 10 10 9 9 9 8 7 6 6 6 6 7 7 7 7 7 8 8 8 9 9 9 8 8 8 8 7 7
12 12 11 11 12 13 13 13 13 14 14 13 13 14 14 13 13 12 12 11 11 10 9 9 8 8 8 7 6 6 6 6 6 6 7 7 8 8 8 8 8 8 8 8 7 7 7 7 7
10 11 11 11 12 12 12 13 12 13 14 14 13 13 13 13 12 12 12 11 10 10 9 8 8 7 8 7 6 5 4 4 5 6 6 7 7 7 7 7 8 8 7 7 7 6 6 7 7
8 8 9 10 10 10 11 12 12 12 13 13 13 13 13 12 12 11 11 11 10 9 9 8 7 7 7 7 6 5 3 4 5 6 6 6 6 7 7 7 7 7 7 6 6 6 6 6 6
5 6 7 8 8 9 9 10 10 10 11 12 12 12 11 11 10 10 10 10 9 9 8 8 7 7 6 6 6 5 4 3 4 5 5 5 5 6 6 6 7 7 7 6 6 5 5 6 6
4 4 4 5 7 7 7 8 8 9 10 10 11 11 10 9 9 8 9 9 8 8 8 7 7 7 6 6 6 5 4 4 3 4 4 5 5 6 6 6 6 6 6 6 6 5 5 6 6
3 3 2 3 4 6 6 6 7 7 8 8 9 9 9 9 8 7 7 7 7 7 7 7 7 6 6 5 5 5 4 4 3 3 3 4 4 5 5 5 5 5 5 5 5 5 6 6 7
4 2 1 1 2 3 4 4 4 5 6 7 7 8 8 8 8 8 7 7 7 6 6 6 7 6 6 5 4 4 4 3 2 3 3 3 4 4 4 4 4 4 5 5 6 6 6 6 8
6 4 4 4 2 2 2 2 2 3 4 5 5 6 7 8 8 8 8 8 7 7 6 6 6 6 5 5 4 4 4 3 3 2 2 2 3 4 3 4 4 4 4 5 5 6 6 6 7
9 8 7 6 5 4 3 2 1 0 2 3 3 4 6 7 7 7 8 8 7 7 6 6 5 6 5 5 4 4 3 3 3 2 1 1 2 3 4 4 5 5 5 5 6 6 6 7 7
12 10 9 9 8 6 5 4 4 3 2 2 3 4 4 6 6 6 7 7 8 7 7 6 5 5 5 4 4 4 3 3 2 2 1 0 1 2 3 4 5 5 5 5 6 6 6 7 7
14 12 12 11 10 9 7 7 6 6 4 3 4 4 5 5 6 6 6 7 7 7 6 6 5 5 5 4 4 3 3 3 2 2 2 1 2 2 3 4 5 6 6 6 7 7 8 8 8
16 15 14 14 13 11 10 9 9 9 8 7 6 6 5 5 6 6 7 7 7 7 6 6 5 5 5 5 4 3 3 3 3 3 3 3 3 3 4 5 6 6 7 7 7 8 8 9 9
18 18 17 16 15 13 13 11 12 11 10 9 8 8 7 7 7 7 7 8 8 8 7 7 7 6 6 6 6 5 4 4 4 4 4 4 4 4 5 6 7 8 8 8 9 9 10 10 10
21 21 20 18 17 16 16 14 13 12 11 11 10 10 10 9 9 9 8 9 9 9 8 8 9 8 8 7 7 6 6 5 6 6 6 6 6 6 6 7 8 9 9 10 10 10 11 12 12
23 23 22 20 19 19 17 16 14 14 12 12 12 12 11 12 11 10 10 10 11 11 10 10 10 10 10 9 9 9 8 9 8 8 8 8 8 8 8 9 9 10 11 11 11 11 12 12 13
25 23 21 21 21 20 18 18 15 15 14 13 13 13 13 13 13 13 12 12 12 13 12 12 12 12 12 11 11 11 11 11 10 10 10 10 10 10 10 10 11 12 12 12 12 13 14 13 14
25 25 23 22 20 20 21 20 16 16 16 15 15 15 15 15 15 14 14 14 14 14 14 14 14 14 14 13 13 13 13 13 13 13 12 11 11 11 12 13 13 13 13 14 14 14 14 15 15
26 26 24 24 23 22 22 21 18 18 18 17 17 17 17 17 17 16 16 16 16 16 16 15 15 16 17 16 15 15 14 14 14 14 14 13 13 14 14 14 15 15 15 15 15 16 16 17 17
28 27 26 25 24 24 23 23 20 20 19 20 19 19 19 18 18 17 17 17 18 18 17 17 17 17 18 18 18 17 17 17 16 16 16 15 15 15 15 16 17 17 18 17 17 18 18 19 19
29 29 28 26 26 25 24 23 23 23 21 20 20 19 19 18 19 19 18 18 19 19 19 19 19 19 20 20 20 19 19 18 18 18 18 17 17 17 17 18 18 18 18 18 18 18 18 18 18
29 29 28 28 27 27 25 24 25 24 22 21 21 20 20 20 20 20 20 20 20 21 21 21 21 21 21 21 21 21 21 21 21 20 20 18 18 18 18 18 18 19 19 19 18 18 19 20 20
Wind_Direction
78 78 78 81 78 77 79 81 85 85 84 84 85 86 88 90 89 87 90 93 91 89 84 81 84 84 89 96 107 119 122 125 130 134 134 136 135 135 139 138 139 139 140 140 140 140 139 139 137
76 78 79 79 79 79 81 82 83 84 84 84 85 86 86 88 88 86 88 92 90 89 87 83 84 87 94 103 112 121 124 127 131 132 131 133 136 137 138 137 140 143 144 142 140 144 142 140 137
76 77 77 77 79 82 82 82 84 84 84 84 84 85 85 85 87 88 88 87 89 88 86 84 81 88 100 105 113 126 134 130 127 129 131 132 139 142 142 142 142 144 148 146 142 143 141 138 136
78 77 75 76 77 80 81 81 83 84 84 84 84 85 84 83 84 85 84 86 88 85 83 82 82 88 97 105 113 121 127 124 124 123 126 131 139 142 146 148 148 146 145 147 145 141 140 139 137
79 76 72 73 78 77 78 79 81 82 84 85 86 85 84 82 81 83 81 81 85 82 80 78 78 87 94 105 112 116 124 125 127 125 124 125 137 144 149 150 145 140 141 148 148 145 142 142 138
80 77 77 77 78 77 77 78 79 79 80 82 84 83 82 83 81 80 81 83 83 82 82 81 77 84 91 101 109 116 125 127 130 130 130 133 137 143 150 150 146 142 143 146 147 146 145 145 143
80 79 79 80 79 76 76 77 78 78 77 78 80 79 77 79 80 81 83 84 81 79 79 81 81 86 87 91 105 115 121 128 131 135 137 139 143 145 143 145 147 149 151 150 151 151 153 153 152
82 78 73 75 76 76 76 76 78 78 76 74 75 76 74 76 79 80 83 83 82 80 79 78 83 84 86 90 99 107 112 123 132 137 142 144 147 149 146 146 149 151 153 156 160 159 162 162 160
82 77 75 77 78 76 74 74 75 77 75 73 72 73 73 75 76 78 81 81 81 80 79 80 80 80 82 86 91 99 107 120 128 136 140 142 146 149 152 153 155 157 158 161 166 167 170 172 169
82 83 79 78 82 80 75 73 73 74 74 74 71 70 70 72 73 75 78 79 79 78 78 78 76 75 74 80 89 98 107 118 131 133 137 141 147 151 156 157 160 161 164 166 169 176 180 183 183
88 86 82 80 85 83 78 75 73 74 73 70 70 70 69 69 72 73 72 72 72 72 73 73 71 70 70 71 77 92 104 119 135 139 144 147 150 157 163 163 164 162 165 165 167 177 187 194 199
92 88 84 80 85 82 78 76 74 71 70 67 67 69 67 66 69 69 68 65 65 66 66 66 65 63 66 69 68 83 95 115 131 142 145 150 158 166 170 175 171 171 176 174 173 179 186 194 202
99 93 90 87 84 79 79 77 73 70 70 70 69 67 64 60 60 64 63 60 59 61 61 60 61 60 63 67 66 76 89 108 129 145 152 156 164 173 173 179 184 185 189 186 185 189 195 200 208
116 99 92 92 88 84 83 78 71 68 67 65 66 63 61 55 50 58 60 55 56 59 59 57 57 57 57 61 64 74 88 97 113 136 147 154 161 168 177 180 186 195 199 200 200 206 215 214 218
155 135 113 100 93 92 87 76 66 68 62 61 59 55 54 47 39 47 52 48 45 51 53 51 50 50 51 54 61 70 83 95 106 128 143 152 159 170 178 182 186 188 192 204 218 223 230 228 227
199 195 192 177 117 108 98 80 70 64 55 55 52 48 49 45 40 39 38 36 35 37 43 48 45 43 45 45 55 68 78 85 99 126 135 154 165 168 178 192 196 200 209 217 222 229 238 238 235
223 230 232 235 208 180 139 120 106 68 52 46 43 42 41 40 36 30 28 29 27 28 34 39 39 38 42 43 52 65 67 67 73 101 126 166 190 190 199 212 217 224 227 230 231 235 246 250 251
233 234 235 237 238 225 223 215 219 313 33 24 16 18 21 25 27 22 19 20 18 20 27 34 35 28 31 39 46 49 54 56 64 81 122 189 209 215 221 226 229 232 237 241 240 240 248 254 261
230 232 238 243 242 237 241 241 250 260 291 341 352 345 349 357 5 7 9 14 12 10 11 16 21 20 25 26 30 29 31 40 44 35 15 316 251 240 239 234 237 242 242 243 245 242 248 252 264
235 237 241 246 248 246 249 252 253 255 262 282 301 315 325 333 342 355 0 2 359 358 359 357 358 359 5 7 2 359 3 356 355 356 347 324 291 264 254 246 248 252 257 254 252 251 254 262 268
238 240 241 245 251 255 257 260 258 257 261 271 281 283 298 315 322 330 337 341 341 343 344 339 339 337 337 340 336 336 340 332 328 329 319 312 306 286 275 266 263 265 267 264 267 258 254 262 265
240 241 242 246 252 260 261 260 264 262 260 264 271 275 281 294 301 309 319 325 324 325 325 323 320 319 317 320 319 309 318 317 311 311 306 301 295 289 284 280 275 272 270 272 273 267 262 264 265
238 241 243 247 252 256 261 259 258 262 260 263 268 272 274 279 286 294 303 308 311 310 309 312 315 309 306 306 308 303 299 301 298 298 293 289 288 286 286 289 285 276 273 272 274 271 268 268 268
240 243 247 250 254 255 257 259 255 261 261 263 265 269 270 272 278 284 290 296 299 299 302 307 306 307 301 298 295 297 294 293 293 290 289 285 282 282 282 287 288 284 278 274 272 271 272 271 273
239 241 245 249 252 257 259 258 257 259 263 266 268 268 269 271 276 281 283 290 293 294 297 300 300 300 294 292 289 291 289 288 288 287 286 281 282 279 280 284 286 287 284 278 275 272 271 272 275
241 242 244 248 250 257 260 260 261 260 261 265 268 270 270 270 271 276 279 285 287 287 291 293 294 293 291 286 288 288 285 283 280 281 285 280 279 280 285 284 285 285 285 283 281 276 273 271 273
243 244 245 247 248 250 253 260 260 260 263 264 266 267 268 268 267 269 274 281 285 286 288 288 288 289 289 284 286 285 283 281 280 280 281 282 285 284 284 284 285 284 283 282 283 278 276 274 274
243 245 245 243 245 251 256 259 262 260 258 260 262 265 266 265 264 266 270 277 282 285 285 283 285 288 288 281 280 282 281 279 280 280 281 281 284 285 285 284 285 283 281 280 280 281 279 278 277
244 244 245 245 246 249 256 260 261 260 258 257 260 262 262 261 261 263 267 274 279 280 280 280 281 286 287 282 280 280 279 278 279 281 279 279 281 282 283 282 282 281 282 282 281 280 280 281 279
244 245 246 247 249 251 253 258 261 259 256 256 257 258 260 260 259 261 266 270 273 276 275 276 279 282 283 281 280 282 278 275 278 279 278 277 279 281 284 283 280 281 282 283 282 282 282 281 278
Height
5888 5887 5887 5887 5887 5888 5887 5886 5885 5884 5883 5883 5882 5881 5881 5881 5882 5883 5880 5879 5879 5878 5877 5877 5876 5876 5875 5875 5875 5875 5876 5877 5878 5879 5880 5881 5882 5883 5883 5884 5885 5886 5887 5888 5889 5890 5891 5892 5893
5890 5890 5890 5890 5891 5891 5890 5888 5887 5886 5885 5884 5883 5883 5882 5882 5882 5881 5880 5880 5880 5879 5879 5878 5878 5877 5877 5876 5876 5877 5877 5878 5879 5880 5881 5882 5883 5884 5884 5885 5886 5886 5887 5888 5889 5890 5891 5893 5894
5893 5892 5893 5893 5893 5892 5891 5890 5888 5887 5886 5886 5885 5884 5884 5883 5883 5882 5881 5881 5881 5880 5880 5879 5879 5878 5878 5878 5878 5878 5879 5879 5880 5880 5882 5882 5883 5884 5885 5885 5886 5886 5887 5889 5890 5891 5892 5894 5895
5896 5896 5896 5897 5896 5895 5893 5892 5890 5889 5888 5887 5887 5886 5885 5885 5884 5884 5883 5882 5882 5882 5881 5881 5880 5880 5879 5879 5879 5879 5880 5880 5880 5881 5882 5883 5884 5885 5885 5886 5886 5886 5886 5888 5891 5892 5894 5894 5896
5898 5898 5900 5900 5898 5897 5895 5894 5892 5891 5890 5889 5888 5888 5887 5886 5886 5885 5884 5884 5883 5883 5883 5882 5881 5881 5881 5880 5880 5880 5881 5881 5882 5882 5883 5884 5884 5885 5886 5886 5887 5887 5886 5889 5892 5894 5895 5896 5897
5901 5902 5904 5902 5900 5899 5898 5896 5895 5893 5892 5891 5890 5890 5889 5888 5887 5887 5886 5886 5885 5885 5884 5884 5883 5882 5882 5882 5882 5882 5882 5882 5883 5883 5884 5884 5885 5886 5886 5887 5888 5888 5889 5891 5893 5895 5896 5897 5898
5905 5905 5905 5905 5903 5902 5900 5898 5897 5896 5894 5893 5892 5892 5890 5890 5889 5889 5888 5888 5887 5886 5886 5885 5885 5884 5884 5884 5883 5883 5883 5884 5884 5884 5884 5885 5886 5886 5887 5888 5889 5890 5891 5892 5894 5895 5897 5898 5899
5907 5908 5908 5907 5906 5904 5903 5901 5899 5898 5897 5896 5895 5894 5893 5892 5891 5890 5890 5889 5889 5888 5887 5886 5886 5886 5886 5885 5885 5885 5884 5884 5884 5884 5885 5885 5886 5887 5888 5889 5890 5891 5892 5893 5894 5896 5897 5898 5899
5909 5912 5911 5909 5908 5907 5905 5903 5902 5900 5899 5898 5897 5896 5895 5894 5893 5892 5892 5891 5891 5890 5889 5888 5888 5887 5887 5887 5886 5886 5885 5885 5885 5885 5885 5885 5886 5887 5888 5889 5891 5892 5893 5894 5895 5896 5898 5899 5900
5911 5913 5912 5911 5910 5908 5907 5905 5904 5902 5901 5900 5899 5898 5897 5896 5895 5894 5894 5893 5892 5892 5891 5890 5889 5889 5888 5888 5887 5887 5886 5886 5886 5886 5885 5886 5887 5888 5889 5890 5891 5892 5893 5894 5895 5896 5898 5899 5900
5913 5914 5913 5912 5911 5910 5909 5907 5906 5905 5903 5902 5901 5900 5899 5898 5897 5896 5896 5895 5894 5894 5893 5892 5891 5890 5889 5889 5888 5887 5887 5887 5886 5886 5887 5887 5888 5889 5890 5891 5891 5893 5894 5894 5895 5896 5898 5899 5900
5915 5915 5914 5913 5913 5911 5910 5909 5908 5907 5906 5905 5904 5902 5901 5900 5899 5898 5898 5897 5896 5896 5895 5894 5893 5891 5891 5890 5889 5888 5888 5887 5887 5887 5888 5888 5889 5890 5891 5891 5892 5893 5894 5895 5896 5897 5897 5898 5899
5916 5916 5915 5915 5914 5913 5912 5911 5910 5909 5908 5907 5905 5904 5903 5902 5901 5901 5900 5899 5898 5897 5896 5895 5894 5893 5892 5891 5890 5889 5889 5888 5888 5888 5888 5889 5889 5890 5891 5891 5892 5893 5894 5895 5896 5897 5897 5898 5899
5916 5916 5916 5915 5915 5914 5914 5913 5912 5911 5909 5908 5907 5906 5905 5904 5903 5902 5901 5901 5900 5899 5898 5897 5895 5894 5893 5892 5891 5890 5889 5889 5889 5889 5889 5889 5890 5890 5891 5892 5893 5893 5894 5895 5896 5896 5897 5898 5898
5915 5916 5916 5916 5916 5915 5915 5915 5913 5912 5911 5910 5909 5908 5907 5906 5905 5904 5903 5902 5901 5900 5899 5898 5896 5895 5894 5893 5892 5891 5890 5890 5890 5890 5890 5890 5891 5891 5892 5892 5893 5893 5894 5895 5895 5895 5896 5897 5897
5915 5916 5917 5917 5916 5916 5917 5916 5915 5913 5912 5911 5910 5909 5908 5907 5906 5905 5904 5903 5902 5901 5900 5899 5897 5896 5895 5894 5893 5892 5891 5891 5891 5891 5890 5891 5891 5891 5892 5893 5893 5893 5894 5894 5895 5895 5895 5895 5896
5915 5916 5917 5917 5916 5916 5916 5916 5915 5914 5913 5912 5911 5910 5909 5908 5907 5906 5905 5904 5903 5902 5901 5900 5899 5897 5896 5895 5894 5893 5892 5892 5891 5891 5891 5891 5891 5892 5892 5892 5893 5893 5893 5893 5894 5894 5894 5894 5895
5914 5915 5916 5916 5915 5915 5915 5916 5915 5914 5913 5913 5912 5911 5910 5909 5908 5907 5906 5905 5904 5903 5902 5901 5900 5898 5897 5895 5895 5894 5893 5892 5892 5892 5892 5892 5891 5891 5891 5892 5892 5892 5892 5892 5893 5893 5893 5893 5893
5911 5913 5914 5914 5913 5914 5914 5914 5914 5914 5913 5913 5912 5911 5910 5909 5908 5907 5906 5905 5904 5903 5902 5901 5900 5899 5897 5896 5895 5894 5894 5893 5893 5892 5892 5892 5892 5891 5891 5892 5892 5891 5891 5891 5891 5892 5892 5892 5892
5908 5910 5911 5912 5911 5912 5913 5913 5913 5913 5913 5912 5911 5911 5910 5909 5908 5907 5906 5905 5904 5903 5902 5901 5900 5899 5898 5897 5896 5895 5894 5893 5893 5892 5892 5892 5891 5891 5891 5891 5891 5890 5890 5890 5890 5890 5890 5890 5890
5905 5907 5908 5909 5909 5910 5911 5912 5911 5911 5911 5911 5910 5910 5909 5909 5908 5907 5906 5905 5904 5903 5902 5901 5900 5899 5898 5897 5896 5895 5893 5893 5892 5892 5892 5891 5891 5890 5890 5890 5889 5889 5889 5889 5888 5888 5888 5889 5889
5901 5903 5904 5906 5907 5908 5909 5910 5909 5909 5909 5909 5908 5908 5908 5907 5907 5906 5905 5904 5903 5902 5901 5900 5899 5898 5897 5896 5895 5894 5893 5892 5892 5891 5891 5890 5890 5890 5889 5888 5888 5888 5887 5887 5887 5886 5886 5886 5886
5897 5899 5900 5902 5903 5905 5905 5906 5908 5906 5906 5907 5906 5906 5906 5906 5905 5904 5904 5903 5902 5901 5900 5899 5898 5897 5896 5895 5894 5893 5892 5891 5891 5890 5889 5889 5888 5888 5888 5887 5886 5886 5885 5885 5885 5884 5884 5884 5884
5891 5894 5896 5897 5899 5900 5902 5902 5904 5903 5903 5903 5903 5903 5903 5903 5903 5902 5902 5901 5900 5899 5899 5898 5897 5896 5895 5894 5893 5893 5892 5890 5890 5889 5888 5887 5887 5886 5886 5885 5884 5884 5883 5883 5882 5881 5881 5881 5881
5886 5890 5892 5893 5895 5897 5897 5897 5900 5899 5899 5899 5900 5900 5900 5900 5900 5899 5899 5898 5898 5897 5896 5895 5894 5894 5893 5892 5891 5890 5889 5889 5888 5887 5886 5885 5884 5884 5883 5882 5882 5881 5880 5880 5879 5879 5878 5878 5878
5881 5885 5888 5890 5892 5893 5892 5892 5895 5895 5895 5895 5896 5896 5896 5896 5896 5896 5896 5895 5895 5894 5893 5893 5892 5891 5890 5889 5888 5887 5886 5886 5885 5884 5883 5882 5882 5881 5880 5880 5879 5878 5877 5876 5876 5875 5874 5874 5874
5876 5878 5882 5884 5884 5887 5888 5888 5889 5890 5890 5891 5891 5891 5892 5892 5892 5892 5892 5891 5891 5891 5890 5889 5889 5888 5886 5885 5885 5884 5883 5883 5882 5881 5881 5880 5879 5878 5877 5876 5875 5875 5874 5873 5872 5871 5871 5871 5870
5870 5872 5874 5877 5878 5880 5882 5883 5884 5884 5885 5886 5886 5887 5887 5888 5888 5888 5888 5888 5887 5886 5886 5886 5885 5884 5882 5881 5881 5880 5880 5879 5878 5878 5877 5876 5875 5874 5873 5872 5871 5870 5870 5869 5869 5868 5867 5866 5865
5863 5865 5867 5870 5872 5874 5876 5880 5878 5878 5879 5880 5881 5881 5882 5882 5882 5883 5883 5883 5883 5882 5882 5881 5881 5879 5878 5877 5876 5876 5875 5874 5874 5873 5872 5872 5871 5870 5869 5868 5867 5866 5865 5864 5864 5863 5862 5861 5861
5855 5858 5860 5863 5864 5866 5869 5874 5871 5871 5873 5874 5875 5875 5876 5876 5877 5877 5878 5878 5877 5877 5876 5876 5875 5875 5874 5872 5872 5871 5870 5870 5869 5868 5868 5867 5866 5865 5864 5863 5862 5861 5860 5859 5859 5858 5857 5856 5855